This is the latest recevied weather packets stored in our database for station/object JQ3CCU-10. If no packets are shown the sender has not sent any weather packets the latest 1 day(s).
| Time | Temp. | Humidity | Pressure | Rain* | Wind** | Luminosity | Snow |
|---|---|---|---|---|---|---|---|
| 1778072055 | 21.11° C | 63% | - | - | 0 m/s | - | - |
| 1778068455 | 21.67° C | 63% | - | - | 0 m/s | - | - |
| 1778066655 | 21.67° C | 62% | - | - | 0 m/s | - | - |
| 1778064855 | 21.67° C | 62% | - | - | 0 m/s | - | - |
| 1778063055 | 22.78° C | 58% | - | - | 0 m/s | - | - |
| 1778061255 | 22.78° C | 58% | - | - | 0 m/s | - | - |
| 1778059455 | 23.89° C | 60% | - | - | 0 m/s | - | - |
| 1778057655 | 23.89° C | 60% | - | - | 0 m/s | - | - |
| 1778055855 | 24.44° C | 54% | - | - | 0 m/s | - | - |
| 1778054055 | 24.44° C | 54% | - | - | 0 m/s | - | - |
| 1778052255 | 24.44° C | 53% | - | - | 0 m/s | - | - |
| 1778050455 | 24.44° C | 53% | - | - | 0 m/s | - | - |
| 1778048655 | 24.44° C | 52% | - | - | 0 m/s | - | - |
| 1778046855 | 24.44° C | 52% | - | - | 0 m/s | - | - |
| 1778045055 | 24.44° C | 52% | - | - | 0 m/s | - | - |
| 1778043255 | 24.44° C | 52% | - | - | 0 m/s | - | - |
| 1778041455 | 23.89° C | 52% | - | - | 0 m/s | - | - |
| 1778039655 | 23.89° C | 52% | - | - | 0 m/s | - | - |
| 1778037855 | 23.33° C | 58% | - | - | 0 m/s | - | - |
| 1778036055 | 23.33° C | 58% | - | - | 0 m/s | - | - |
| 1778034255 | 23.33° C | 53% | - | - | 0 m/s | - | - |
| 1778032455 | 23.33° C | 53% | - | - | 0 m/s | - | - |
| 1778030655 | 23.33° C | 53% | - | - | 0 m/s | - | - |
| 1778028855 | 23.33° C | 53% | - | - | 0 m/s | - | - |
| 1778027055 | 21.67° C | 56% | - | - | 0 m/s | - | - |
* Rain since midnight (hover to see other rain measurements)
** Current wind speed in m/s (hover to see current wind gust speed)